sat.trackr.live / text

‹ back to catalog

STARLINK-32807

NORAD 62845 · 2025-019S

PAYLOAD ACTIVE UNKNOWN

§ Identity

Operator
Country
US
Launch date
2025-01-27
Launch site
AFETR
Launch vehicle
Mass (kg)
RCS (m²)

Purposes: comms

External: N2YO · Heavens-Above · Gunter

§ Orbital elements

Epoch: 2026-09-20T21:54:04.315680Z

Period
94.27 min
Inclination
42.9967°
Eccentricity
0.0001369
Mean motion
15.27591763 rev/d
Perigee alt
482.1 km
Apogee alt
484.0 km
Semi-major
6,861.2 km
B*
4.9146e-4
RAAN
59.0260°
Arg perigee
276.7627°
Mean anomaly
83.3069°
Rev number
9,219

§ Raw data

STARLINK-328071 62845U 25019S   26263.91254995  .00013291  00000+0  49146-3 0  99972 62845  42.9967  59.0260 0001369 276.7627  83.3069 15.27591763 92198

JSON: /api/v1/satellites/62845 · /tle

For live sub-satellite position, see the globe view (requires WebGL).

§ Visibility from observer

Set your observer location to see the next 7 days of passes ≥ 10°. The values pass through the URL so the page stays shareable.

No JS? Fill the form by hand. The geolocation button needs JavaScript.